Washington Dulles International Airport Washington US
ICAO: KIAD
IATA: IAD
Category: Large
Scheduled Services: Yes

Elevation: 312 ft
TransAlt. 18000 ft.

Airport Communications:
POTOMAC APP:120.45
ATIS:134.85
CLNC DEL:135.7
POTOMAC DEP:125.05
GND:121.9
ARMEL RCO:113.5
RAMP CON:129.55
TWR:120.1
UNICOM:122.95

KIAD Zoom In..

If you have problems with the map follow the link
https://www.worldairports.se/pages/airport.php?
ICAO=KIAD

Runways:

(A) RW 01C length 11500 ft width 150 ft
ILS 111.30 / hdg 11

(B) RW 01L length 9400 ft width 150 ft
ILS 110.75 / hdg 11

(C) RW 01R length 11500 ft width 150 ft
ILS 110.10 / hdg 11

(D) RW 12 length 10501 ft width 150 ft
ILS 109.30 / hdg 121

(E) RW 19C length 11500 ft width 150 ft
ILS 111.30 / hdg 191

(F) RW 19L length 11500 ft width 150 ft
ILS 110.10 / hdg 191

(G) RW 19R length 9400 ft width 150 ft
ILS 110.75 / hdg 191

(H) RW 30 length 10501 ft width 150 ft
---- / hdg 301

Location; KIAD
Day. 28 / Time. 14.52 Zulu
* Altimeter: 29.96
* Temperature: 06° c. 42.8°f.
* Wind from: 320° Speed 14 kn.
Dewpoint: -02° c.
Visibility: 10 Statute Miles.
Clouds: Few 3300 ft.
Clouds: Scattered 5000 ft.

KIAD 281452Z 32014KT 10SM FEW033 SCT050 06/M02 A2996 RMK AO2 SLP145 T00561017 51014 $


Wind From 320°
Speed 14 kn.

 
 
jpsmedia worldairports.se 2020   terms of use